Time,TemperatureF,DewpointF,PressureIn,WindDirection,WindDirectionDegrees,WindSpeedMPH,WindSpeedGustMPH,Humidity,HourlyPrecipIn,Conditions,Clouds,dailyrainin,SoftwareType,DateUTC
2013-05-25 00:02:00,44.0,43.0,29.83,SW,224,1.0,-999.0,96,-99.99,,,-99.99,,2013-05-25 04:02:00,
2013-05-25 00:13:00,44.0,43.0,29.83,SW,224,1.0,-999.0,96,-99.99,,,-99.99,,2013-05-25 04:13:00,
2013-05-25 00:23:00,45.0,44.0,29.82,SSE,156,0.0,-999.0,96,-99.99,,,-99.99,,2013-05-25 04:23:00,
2013-05-25 00:33:00,44.0,43.0,29.82,SSE,157,2.0,-999.0,95,-99.99,,,-99.99,,2013-05-25 04:33:00,
2013-05-25 00:43:00,44.0,43.0,29.82,SSE,157,2.0,-999.0,95,-99.99,,,-99.99,,2013-05-25 04:43:00,
2013-05-25 00:53:00,45.0,44.0,29.82,WSW,258,1.0,-999.0,95,-99.99,,,-99.99,,2013-05-25 04:53:00,
2013-05-25 01:02:00,44.0,43.0,29.82,SE,134,0.0,-999.0,95,-99.99,,,-99.99,,2013-05-25 05:02:00,
2013-05-25 01:12:00,44.0,43.0,29.82,SE,134,0.0,-999.0,95,-99.99,,,-99.99,,2013-05-25 05:12:00,
2013-05-25 01:22:00,44.0,43.0,29.81,WSW,238,0.0,-999.0,96,-99.99,,,-99.99,,2013-05-25 05:22:00,
2013-05-25 01:32:00,44.0,43.0,29.82,West,260,0.0,-999.0,96,-99.99,,,-99.99,,2013-05-25 05:32:00,
2013-05-25 01:43:00,44.0,43.0,29.82,West,260,0.0,-999.0,96,-99.99,,,-99.99,,2013-05-25 05:43:00,
2013-05-25 01:52:00,44.0,43.0,29.80,SW,218,1.0,-999.0,96,-99.99,,,-99.99,,2013-05-25 05:52:00,
2013-05-25 02:02:00,44.0,43.0,29.82,SE,137,0.0,-999.0,96,-99.99,,,-99.99,,2013-05-25 06:02:00,
2013-05-25 02:12:00,44.0,43.0,29.82,SE,137,0.0,-999.0,96,-99.99,,,-99.99,,2013-05-25 06:12:00,
2013-05-25 02:22:00,44.0,43.0,29.81,East,91,1.0,-999.0,96,-99.99,,,-99.99,,2013-05-25 06:22:00,
2013-05-25 02:32:00,43.0,42.0,29.81,WNW,283,0.0,-999.0,96,-99.99,,,-99.99,,2013-05-25 06:32:00,
2013-05-25 02:42:00,43.0,42.0,29.81,WNW,283,0.0,-999.0,96,-99.99,,,-99.99,,2013-05-25 06:42:00,
2013-05-25 02:52:00,44.0,43.0,29.79,SW,214,1.0,-999.0,96,-99.99,,,-99.99,,2013-05-25 06:52:00,
2013-05-25 03:01:00,43.0,42.0,29.80,NW,326,1.0,-999.0,96,-99.99,,,-99.99,,2013-05-25 07:01:00,
2013-05-25 03:11:00,43.0,42.0,29.80,NW,326,1.0,-999.0,96,-99.99,,,-99.99,,2013-05-25 07:11:00,
2013-05-25 03:22:00,43.0,42.0,29.80,NNW,343,1.0,-999.0,96,-99.99,,,-99.99,,2013-05-25 07:22:00,
2013-05-25 03:32:00,43.0,42.0,29.80,NNW,343,1.0,-999.0,96,-99.99,,,-99.99,,2013-05-25 07:32:00,
2013-05-25 03:42:00,43.0,42.0,29.80,NNW,343,1.0,-999.0,96,-99.99,,,-99.99,,2013-05-25 07:42:00,
2013-05-25 03:52:00,44.0,43.0,29.79,SE,139,0.0,-999.0,95,-99.99,,,-99.99,,2013-05-25 07:52:00,
2013-05-25 04:02:00,43.0,42.0,29.80,SSE,155,0.0,-999.0,95,-99.99,,,-99.99,,2013-05-25 08:02:00,
2013-05-25 04:11:00,43.0,42.0,29.80,SSE,155,0.0,-999.0,95,-99.99,,,-99.99,,2013-05-25 08:11:00,
2013-05-25 04:23:00,44.0,43.0,29.78,West,260,0.0,-999.0,96,-99.99,,,-99.99,,2013-05-25 08:23:00,
2013-05-25 04:32:00,43.0,42.0,29.79,West,262,0.0,-999.0,96,-99.99,,,-99.99,,2013-05-25 08:32:00,
2013-05-25 04:42:00,43.0,42.0,29.79,West,262,0.0,-999.0,96,-99.99,,,-99.99,,2013-05-25 08:42:00,
2013-05-25 04:52:00,44.0,43.0,29.78,WSW,252,0.0,-999.0,96,-99.99,,,-99.99,,2013-05-25 08:52:00,
2013-05-25 05:02:00,43.0,42.0,29.79,SE,132,0.0,-999.0,96,-99.99,,,-99.99,,2013-05-25 09:02:00,
2013-05-25 05:11:00,43.0,42.0,29.79,SE,132,0.0,-999.0,96,-99.99,,,-99.99,,2013-05-25 09:11:00,
2013-05-25 05:21:00,43.0,42.0,29.78,SE,143,1.0,-999.0,95,-99.99,,,-99.99,,2013-05-25 09:21:00,
2013-05-25 05:33:00,43.0,42.0,29.79,SE,139,0.0,-999.0,95,-99.99,,,-99.99,,2013-05-25 09:33:00,
2013-05-25 05:43:00,43.0,42.0,29.79,SE,139,0.0,-999.0,95,-99.99,,,-99.99,,2013-05-25 09:43:00,
2013-05-25 05:53:00,43.0,42.0,29.77,West,259,0.0,-999.0,96,-99.99,,,-99.99,,2013-05-25 09:53:00,
2013-05-25 06:03:00,43.0,42.0,29.78,WNW,286,1.0,-999.0,96,-99.99,,,-99.99,,2013-05-25 10:03:00,
2013-05-25 06:12:00,43.0,42.0,29.78,WNW,286,1.0,-999.0,96,-99.99,,,-99.99,,2013-05-25 10:12:00,
2013-05-25 06:23:00,43.0,42.0,29.79,West,266,1.0,-999.0,95,-99.99,,,-99.99,,2013-05-25 10:23:00,
2013-05-25 06:33:00,43.0,42.0,29.79,West,266,1.0,-999.0,95,-99.99,,,-99.99,,2013-05-25 10:33:00,
2013-05-25 06:42:00,43.0,42.0,29.79,West,266,1.0,-999.0,95,-99.99,,,-99.99,,2013-05-25 10:42:00,
2013-05-25 06:52:00,43.0,42.0,29.78,SW,223,2.0,-999.0,95,-99.99,,,-99.99,,2013-05-25 10:52:00,
2013-05-25 07:02:00,43.0,41.0,29.79,WNW,299,2.0,-999.0,94,-99.99,,,-99.99,,2013-05-25 11:02:00,
2013-05-25 07:12:00,43.0,41.0,29.79,WNW,299,2.0,-999.0,94,-99.99,,,-99.99,,2013-05-25 11:12:00,
2013-05-25 07:22:00,43.0,41.0,29.77,SSW,197,2.0,-999.0,94,-99.99,,,-99.99,,2013-05-25 11:22:00,
2013-05-25 07:32:00,43.0,41.0,29.79,SSW,198,2.0,-999.0,94,-99.99,,,-99.99,,2013-05-25 11:32:00,
2013-05-25 07:42:00,43.0,41.0,29.79,SSW,198,2.0,-999.0,94,-99.99,,,-99.99,,2013-05-25 11:42:00,
2013-05-25 07:52:00,43.0,42.0,29.77,West,270,0.0,-999.0,95,-99.99,,,-99.99,,2013-05-25 11:52:00,
2013-05-25 08:01:00,43.0,42.0,29.78,WSW,251,1.0,-999.0,95,-99.99,,,-99.99,,2013-05-25 12:01:00,
2013-05-25 08:12:00,43.0,42.0,29.78,WSW,251,1.0,-999.0,95,-99.99,,,-99.99,,2013-05-25 12:12:00,
2013-05-25 08:22:00,44.0,42.0,29.78,North,11,1.0,-999.0,94,-99.99,,,-99.99,,2013-05-25 12:22:00,
2013-05-25 08:32:00,43.0,41.0,29.77,West,279,1.0,-999.0,94,-99.99,,,-99.99,,2013-05-25 12:32:00,
2013-05-25 08:42:00,43.0,41.0,29.77,West,279,1.0,-999.0,94,-99.99,,,-99.99,,2013-05-25 12:42:00,
2013-05-25 08:52:00,44.0,43.0,29.77,NNE,23,0.0,-999.0,95,-99.99,,,-99.99,,2013-05-25 12:52:00,
2013-05-25 09:02:00,43.0,41.0,29.78,WSW,243,1.0,-999.0,93,-99.99,,,-99.99,,2013-05-25 13:02:00,
2013-05-25 09:11:00,43.0,41.0,29.78,WSW,243,1.0,-999.0,93,-99.99,,,-99.99,,2013-05-25 13:11:00,
2013-05-25 09:22:00,43.0,41.0,29.78,NW,305,0.0,-999.0,94,-99.99,,,-99.99,,2013-05-25 13:22:00,
2013-05-25 09:32:00,43.0,41.0,29.78,NW,305,0.0,-999.0,94,-99.99,,,-99.99,,2013-05-25 13:32:00,
2013-05-25 09:42:00,43.0,41.0,29.78,NW,305,0.0,-999.0,94,-99.99,,,-99.99,,2013-05-25 13:42:00,
2013-05-25 09:52:00,44.0,42.0,29.76,West,264,1.0,-999.0,92,-99.99,,,-99.99,,2013-05-25 13:52:00,
2013-05-25 10:02:00,43.0,41.0,29.78,SSW,208,2.0,-999.0,92,-99.99,,,-99.99,,2013-05-25 14:02:00,
2013-05-25 10:11:00,43.0,41.0,29.78,SSW,208,2.0,-999.0,92,-99.99,,,-99.99,,2013-05-25 14:11:00,
2013-05-25 10:22:00,43.0,41.0,29.75,West,276,1.0,-999.0,93,-99.99,,,-99.99,,2013-05-25 14:22:00,
2013-05-25 10:32:00,43.0,41.0,29.77,South,175,1.0,-999.0,94,-99.99,,,-99.99,,2013-05-25 14:32:00,
2013-05-25 10:42:00,43.0,41.0,29.77,South,175,1.0,-999.0,94,-99.99,,,-99.99,,2013-05-25 14:42:00,
2013-05-25 10:52:00,43.0,41.0,29.75,West,281,1.0,-999.0,94,-99.99,,,-99.99,,2013-05-25 14:52:00,
2013-05-25 11:01:00,42.0,40.0,29.78,SE,139,1.0,-999.0,94,-99.99,,,-99.99,,2013-05-25 15:01:00,
2013-05-25 11:12:00,42.0,40.0,29.78,SE,139,1.0,-999.0,94,-99.99,,,-99.99,,2013-05-25 15:12:00,
2013-05-25 11:22:00,43.0,41.0,29.75,SE,126,2.0,-999.0,94,-99.99,,,-99.99,,2013-05-25 15:22:00,
2013-05-25 11:33:00,42.0,40.0,29.77,South,186,1.0,-999.0,94,-99.99,,,-99.99,,2013-05-25 15:33:00,
2013-05-25 11:43:00,42.0,40.0,29.77,South,186,1.0,-999.0,94,-99.99,,,-99.99,,2013-05-25 15:43:00,
2013-05-25 11:53:00,43.0,41.0,29.75,SW,214,3.0,-999.0,94,-99.99,,,-99.99,,2013-05-25 15:53:00,
2013-05-25 12:03:00,42.0,40.0,29.77,SE,134,2.0,-999.0,93,-99.99,,,-99.99,,2013-05-25 16:03:00,
2013-05-25 12:12:00,42.0,40.0,29.77,SE,134,2.0,-999.0,93,-99.99,,,-99.99,,2013-05-25 16:12:00,
2013-05-25 12:23:00,41.0,39.0,29.78,West,260,3.0,-999.0,93,-99.99,,,-99.99,,2013-05-25 16:23:00,
2013-05-25 12:32:00,41.0,39.0,29.78,West,260,3.0,-999.0,93,-99.99,,,-99.99,,2013-05-25 16:32:00,
2013-05-25 12:42:00,41.0,39.0,29.78,West,260,3.0,-999.0,93,-99.99,,,-99.99,,2013-05-25 16:42:00,
2013-05-25 12:52:00,41.0,39.0,29.75,SW,233,3.0,-999.0,93,-99.99,,,-99.99,,2013-05-25 16:52:00,
2013-05-25 13:03:00,41.0,39.0,29.78,West,281,3.0,-999.0,94,-99.99,,,-99.99,,2013-05-25 17:03:00,
2013-05-25 13:11:00,41.0,39.0,29.78,West,281,3.0,-999.0,94,-99.99,,,-99.99,,2013-05-25 17:11:00,
2013-05-25 13:22:00,41.0,39.0,29.75,North,354,2.0,-999.0,94,-99.99,,,-99.99,,2013-05-25 17:22:00,
2013-05-25 13:32:00,41.0,40.0,29.78,SSW,213,1.0,-999.0,95,-99.99,,,-99.99,,2013-05-25 17:32:00,
2013-05-25 13:42:00,41.0,40.0,29.78,SSW,213,1.0,-999.0,95,-99.99,,,-99.99,,2013-05-25 17:42:00,
2013-05-25 13:52:00,41.0,39.0,29.75,West,273,3.0,-999.0,93,-99.99,,,-99.99,,2013-05-25 17:52:00,
2013-05-25 14:02:00,40.0,38.0,29.77,WSW,243,4.0,-999.0,93,-99.99,,,-99.99,,2013-05-25 18:02:00,
2013-05-25 14:11:00,40.0,38.0,29.77,WSW,243,4.0,-999.0,93,-99.99,,,-99.99,,2013-05-25 18:11:00,
2013-05-25 14:22:00,40.0,38.0,29.75,West,261,5.0,-999.0,93,-99.99,,,-99.99,,2013-05-25 18:22:00,
2013-05-25 14:32:00,40.0,38.0,29.78,NNW,339,3.0,-999.0,93,-99.99,,,-99.99,,2013-05-25 18:32:00,
2013-05-25 14:42:00,40.0,38.0,29.78,NNW,339,3.0,-999.0,93,-99.99,,,-99.99,,2013-05-25 18:42:00,
2013-05-25 14:52:00,40.0,38.0,29.77,WSW,247,3.0,-999.0,92,-99.99,,,-99.99,,2013-05-25 18:52:00,
2013-05-25 15:02:00,40.0,38.0,29.78,West,262,2.0,-999.0,92,-99.99,,,-99.99,,2013-05-25 19:02:00,
2013-05-25 15:11:00,40.0,38.0,29.78,West,262,2.0,-999.0,92,-99.99,,,-99.99,,2013-05-25 19:11:00,
2013-05-25 15:22:00,41.0,39.0,29.75,WNW,293,3.0,-999.0,91,-99.99,,,-99.99,,2013-05-25 19:22:00,
2013-05-25 15:32:00,40.0,37.0,29.78,North,4,3.0,-999.0,90,-99.99,,,-99.99,,2013-05-25 19:32:00,
2013-05-25 15:42:00,40.0,37.0,29.78,North,4,3.0,-999.0,90,-99.99,,,-99.99,,2013-05-25 19:42:00,
2013-05-25 15:52:00,41.0,38.0,29.75,NW,312,2.0,-999.0,90,-99.99,,,-99.99,,2013-05-25 19:52:00,
2013-05-25 16:02:00,40.0,37.0,29.77,SW,226,2.0,-999.0,90,-99.99,,,-99.99,,2013-05-25 20:02:00,
2013-05-25 16:11:00,40.0,37.0,29.77,SW,226,2.0,-999.0,90,-99.99,,,-99.99,,2013-05-25 20:11:00,
2013-05-25 16:22:00,41.0,38.0,29.74,SSW,197,3.0,-999.0,89,-99.99,,,-99.99,,2013-05-25 20:22:00,
2013-05-25 16:32:00,41.0,38.0,29.76,South,191,3.0,-999.0,88,-99.99,,,-99.99,,2013-05-25 20:32:00,
2013-05-25 16:42:00,41.0,38.0,29.76,South,191,3.0,-999.0,88,-99.99,,,-99.99,,2013-05-25 20:42:00,
2013-05-25 16:52:00,41.0,38.0,29.75,WNW,290,4.0,-999.0,88,-99.99,,,-99.99,,2013-05-25 20:52:00,
2013-05-25 17:02:00,40.0,37.0,29.76,SSE,158,4.0,-999.0,88,-99.99,,,-99.99,,2013-05-25 21:02:00,
2013-05-25 17:11:00,40.0,37.0,29.76,SSE,158,4.0,-999.0,88,-99.99,,,-99.99,,2013-05-25 21:11:00,
2013-05-25 17:22:00,41.0,38.0,29.74,NW,309,3.0,-999.0,88,-99.99,,,-99.99,,2013-05-25 21:22:00,
2013-05-25 17:33:00,40.0,37.0,29.77,West,268,3.0,-999.0,89,-99.99,,,-99.99,,2013-05-25 21:33:00,
2013-05-25 17:43:00,40.0,37.0,29.77,West,268,3.0,-999.0,89,-99.99,,,-99.99,,2013-05-25 21:43:00,
2013-05-25 17:53:00,40.0,37.0,29.76,SSW,211,2.0,-999.0,88,-99.99,,,-99.99,,2013-05-25 21:53:00,
2013-05-25 18:03:00,40.0,37.0,29.76,SSW,211,2.0,-999.0,88,-99.99,,,-99.99,,2013-05-25 22:03:00,
2013-05-25 18:13:00,40.0,37.0,29.76,SSW,211,2.0,-999.0,88,-99.99,,,-99.99,,2013-05-25 22:13:00,
2013-05-25 18:23:00,39.0,37.0,29.75,SSW,207,3.0,-999.0,91,-99.99,,,-99.99,,2013-05-25 22:23:00,
2013-05-25 18:32:00,38.0,36.0,29.77,West,267,3.0,-999.0,91,-99.99,,,-99.99,,2013-05-25 22:32:00,
2013-05-25 18:42:00,38.0,36.0,29.77,West,267,3.0,-999.0,91,-99.99,,,-99.99,,2013-05-25 22:42:00,
2013-05-25 18:52:00,38.0,36.0,29.75,SSW,200,3.0,-999.0,93,-99.99,,,-99.99,,2013-05-25 22:52:00,
2013-05-25 19:02:00,37.0,35.0,29.77,WNW,293,3.0,-999.0,93,-99.99,,,-99.99,,2013-05-25 23:02:00,
2013-05-25 19:12:00,37.0,35.0,29.77,WNW,293,3.0,-999.0,93,-99.99,,,-99.99,,2013-05-25 23:12:00,
2013-05-25 19:22:00,37.0,35.0,29.74,NW,320,3.0,-999.0,94,-99.99,,,-99.99,,2013-05-25 23:22:00,
2013-05-25 19:32:00,36.0,34.0,29.76,WSW,243,2.0,-999.0,94,-99.99,,,-99.99,,2013-05-25 23:32:00,
2013-05-25 19:42:00,36.0,34.0,29.76,WSW,243,2.0,-999.0,94,-99.99,,,-99.99,,2013-05-25 23:42:00,
2013-05-25 19:52:00,36.0,34.0,29.74,WNW,289,2.0,-999.0,94,-99.99,,,-99.99,,2013-05-25 23:52:00,
2013-05-25 20:02:00,35.0,34.0,29.76,ESE,112,1.0,-999.0,95,-99.99,,,-99.99,,2013-05-26 00:02:00,
2013-05-25 20:11:00,35.0,34.0,29.76,ESE,112,1.0,-999.0,95,-99.99,,,-99.99,,2013-05-26 00:11:00,
2013-05-25 20:22:00,35.0,33.0,29.75,SSE,164,1.0,-999.0,94,-99.99,,,-99.99,,2013-05-26 00:22:00,
2013-05-25 20:32:00,35.0,33.0,29.75,SSE,164,1.0,-999.0,94,-99.99,,,-99.99,,2013-05-26 00:32:00,
2013-05-25 20:42:00,35.0,33.0,29.75,SSE,164,1.0,-999.0,94,-99.99,,,-99.99,,2013-05-26 00:42:00,
2013-05-25 20:53:00,34.0,33.0,29.72,SW,233,0.0,-999.0,96,-99.99,,,-99.99,,2013-05-26 00:53:00,
2013-05-25 21:01:00,34.0,33.0,29.72,SW,233,0.0,-999.0,96,-99.99,,,-99.99,,2013-05-26 01:01:00,
2013-05-25 21:11:00,34.0,33.0,29.72,SW,233,0.0,-999.0,96,-99.99,,,-99.99,,2013-05-26 01:11:00,
2013-05-25 21:21:00,33.0,32.0,29.73,ESE,107,0.0,-999.0,96,-99.99,,,-99.99,,2013-05-26 01:21:00,
2013-05-25 21:32:00,33.0,32.0,29.75,SSW,211,1.0,-999.0,96,-99.99,,,-99.99,,2013-05-26 01:32:00,
2013-05-25 21:42:00,33.0,32.0,29.75,SSW,211,1.0,-999.0,96,-99.99,,,-99.99,,2013-05-26 01:42:00,
2013-05-25 21:53:00,33.0,32.0,29.73,WNW,284,0.0,-999.0,97,-99.99,,,-99.99,,2013-05-26 01:53:00,
2013-05-25 22:02:00,33.0,32.0,29.75,WSW,243,0.0,-999.0,97,-99.99,,,-99.99,,2013-05-26 02:02:00,
2013-05-25 22:11:00,33.0,32.0,29.75,WSW,243,0.0,-999.0,97,-99.99,,,-99.99,,2013-05-26 02:11:00,
2013-05-25 22:21:00,34.0,33.0,29.72,WNW,288,0.0,-999.0,97,-99.99,,,-99.99,,2013-05-26 02:21:00,
2013-05-25 22:32:00,33.0,32.0,29.75,West,264,0.0,-999.0,97,-99.99,,,-99.99,,2013-05-26 02:32:00,
2013-05-25 22:42:00,33.0,32.0,29.75,West,264,0.0,-999.0,97,-99.99,,,-99.99,,2013-05-26 02:42:00,
2013-05-25 22:52:00,34.0,33.0,29.71,West,264,0.0,-999.0,97,-99.99,,,-99.99,,2013-05-26 02:52:00,
2013-05-25 23:01:00,33.0,32.0,29.73,SW,233,0.0,-999.0,97,-99.99,,,-99.99,,2013-05-26 03:01:00,
2013-05-25 23:11:00,33.0,32.0,29.73,SW,233,0.0,-999.0,97,-99.99,,,-99.99,,2013-05-26 03:11:00,
2013-05-25 23:22:00,34.0,33.0,29.70,SW,226,0.0,-999.0,97,-99.99,,,-99.99,,2013-05-26 03:22:00,
2013-05-25 23:33:00,34.0,33.0,29.73,WSW,238,0.0,-999.0,97,-99.99,,,-99.99,,2013-05-26 03:33:00,
2013-05-25 23:43:00,34.0,33.0,29.73,WSW,238,0.0,-999.0,97,-99.99,,,-99.99,,2013-05-26 03:43:00,
2013-05-25 23:53:00,35.0,34.0,29.70,SSW,207,0.0,-999.0,96,-99.99,,,-99.99,,2013-05-26 03:53:00,